Regional Weather Roundup
Issued by NWS

Home | Current Version | Previous Version | Graphics & Text | Print | Product List | Glossary On
Versions: 1 2 3 4 5 6 7 8 9 10 11 12 13 14 15 16 17 18 19 20 21 22 23 24 25 26 27 28 29 30 31 32 33 34 35 36 37 38 39 40 41 42 43 44 45 46 47 48 49 50
295
ASUS43 KLOT 290203
RWRIL

ILLINOIS REGIONAL WEATHER ROUNDUP
NATIONAL WEATHER SERVICE CHICAGO/ROMEOVILLE IL
900 PM CDT WED JUN 28 2017

NOTE: "FAIR" INDICATES FEW OR NO CLOUDS BELOW 12,000 FEET WITH NO
SIGNIFICANT WEATHER AND/OR OBSTRUCTIONS TO VISIBILITY.

* THESE STATIONS ARE NOT UNDER NWS QUALITY CONTROL. THEY ALSO MAY NOT
  REPORT WEATHER SUCH AS PRECIPITATION OR FOG.

ILZ001-002-007-009-015-016-024-290300-
NORTHWEST ILLINOIS

CITY           SKY/WX    TMP DP  RH WIND       PRES   REMARKS
MOLINE         CLOUDY    80  66  62 S15G25    29.66F HX  82
STERLING*      CLOUDY    78  65  63 VRB5      29.72R HX  80
SAVANNA*       CLOUDY    75  69  81 SW5       29.70R
$$

ILZ003-004-008-010-011-017-018-290300-
NORTH CENTRAL ILLINOIS

CITY           SKY/WX    TMP DP  RH WIND       PRES   REMARKS
ROCKFORD       TSTM      67  64  90 NE24      29.76F
FREEPORT*      CLOUDY    64  63  95 NE10      29.79R
ROCHELLE*      CLOUDY    75  65  71 S10       29.76R
DE KALB*       CLOUDY    74  64  70 NW12G22   29.82R
PERU*          CLOUDY    75  63  65 S17       29.77R
$$

ILZ005-006-012>014-019>023-290300-
NORTHEAST ILLINOIS

CITY           SKY/WX    TMP DP  RH WIND       PRES   REMARKS
CHICAGO-OHARE  CLOUDY    79  60  52 S20G28    29.76S HX  80
CHICAGO-MIDWAY MOCLDY    79  62  56 S20G29    29.77S HX  80
AURORA         CLOUDY    77  63  61 S18G25    29.78R
LANSING*       CLOUDY    77  60  55 S14G25    29.82R
JOLIET*        CLOUDY    80  62  54 S16G22    29.80R HX  81
WAUKEGAN       TSTM      74  64  71 W14G26    29.83R
DUPAGE AIRPORT CLOUDY    76  63  64 S18G29    29.76R
WHEELING       CLOUDY    77  64  64 S18G25    29.77R
MORRIS*        CLOUDY    77  62  60 S15G22    29.78S
ROMEOVILLE*    CLOUDY   N/A N/A N/A S20       29.79R
$$

LMZ740>746-290300-
SOUTHERN LAKE MICHIGAN

STATION/POSITION SKY/WX   TEMP    WIND        PRES    VSBY  WAVE
                          AIR SEA DIR/SP/G                  HT/PER
                          (F)     (DEG/KT/KT) (MB)    (MI)  (FT/S)
SOUTHERN BUOY              66 60  190/ 14/ 16 1008.0          4/ 5
WILMETTE HARBOR            75 62  190/ 17/ 23   N/A           3/ 4
HARRISON CRIB              78     200/ 29/ 33   N/A
BURNHAM HARBOR             78                   N/A
CALUMET HARBOR             78     180/ 13/ 21 1007.8F
BURNS HARBOR               77     180/ 17/ 25 1009.1F
MICHIGAN CITY              77     170/ 16/ 19   N/A
MICHIGAN CITY 6N           75 65  190/ 21/ 29   N/A           2/ 3
ST. JOSEPH                 74 67  190/ 17/ 23 1008.9F         3/ 4
$$

ILZ025>027-034>036-040-047-049-050-058-095>099-290300-
WEST-CENTRAL ILLINOIS

CITY           SKY/WX    TMP DP  RH WIND       PRES   REMARKS
QUINCY         CLOUDY    79  62  56 S9        29.80F HX  80
GALESBURG*     CLOUDY    78  64  61 S14       29.76S HX  80
MACOMB*        CLOUDY    79  63  56 S9        29.80F HX  81
JACKSONVILLE*  CLOUDY    80  62  54 S16       29.83S HX  81
PITTSFIELD*    CLOUDY    79  65  60 S9        29.84F HX  81
$$

ILZ028>032-037-038-041>044-048-051>054-059>061-290300-
CENTRAL ILLINOIS

CITY           SKY/WX    TMP DP  RH WIND       PRES   REMARKS
PONTIAC        CLOUDY    78  64  60 S15G21    29.83R HX  80
BLOOMINGTON    CLOUDY    77  63  61 S22       29.84S
DECATUR        CLOUDY    77  62  59 S15       29.88S
PEORIA         MOCLDY    80  63  55 S18       29.79F HX  81
LACON*         CLOUDY    79  64  59 S16       29.77R HX  80
LINCOLN*       CLOUDY    80  63  55 S16G22    29.83F HX  81
SPRINGFIELD    CLOUDY    81  63  54 S16G23    29.84F HX  82
TAYLORVILLE    CLOUDY    76  61  60 S10       29.88S
$$

ILZ033-039-045-046-055>057-062-063-290300-
EAST-CENTRAL ILLINOIS

CITY           SKY/WX    TMP DP  RH WIND       PRES   REMARKS
CHAMPAIGN      CLEAR     77  61  57 S13       29.88F
RANTOUL*       CLEAR     78  64  61 S13G18    29.87F HX  80
MATTOON        CLEAR     76  64  66 S9        29.91S
$$

ILZ079-100>102-290300-
SOUTHWEST ILLINOIS

CITY           SKY/WX    TMP DP  RH WIND       PRES   REMARKS
ALTON          CLOUDY    79  64  61 S13       29.90R HX  81
BELLEVILLE     PTCLDY    79  65  62 SW9       29.92R HX  81
CAHOKIA*       CLOUDY    82  62  50 S8        29.90R HX  83
SPARTA*        CLEAR     78  64  62 S6        29.94R HX  80
$$

ILZ064>066-069>071-074>076-080>082-084>086-088>090-092>094-290300-
SOUTH-CENTRAL ILLINOIS

CITY           SKY/WX    TMP DP  RH WIND       PRES   REMARKS
CARBONDALE     PTCLDY    77  65  66 S7        29.93R
CAIRO*         CLEAR     80  64  57 S7        29.93S HX  81
EFFINGHAM*     PTCLDY    77  64  64 SE7       29.94R
MARION         PTCLDY    79  64  61 S7        29.95R HX  81
MT. VERNON     CLOUDY    76  65  68 S6        29.94
CENTRALIA*     CLEAR     77  65  68 S6        29.92R
SALEM*         CLEAR     79  64  61 S6        29.93R HX  80
METROPOLIS*    LGT RAIN  79  65  62 CALM      29.95S HX  81
$$

ILZ067-068-072-073-078-083-087-091-290300-
SOUTHEAST ILLINOIS

CITY           SKY/WX    TMP DP  RH WIND       PRES   REMARKS
LAWRENCEVILLE  CLOUDY    70  63  78 S8        29.95R
FLORA*         CLOUDY    78  65  65 S6        29.94R HX  80
FAIRFIELD*     CLOUDY    77  66  69 S5        29.94R
HARRISBURG*    CLOUDY    74  67  78 SE6       29.95R
ROBINSON*      CLEAR     72  61  69 S5        29.95R
CARMI*         PTCLDY    74  66  76 S7        29.94R
$$

ABBREVIATIONS USED IN REMARKS
   TC - TEMPERATURE IN CELSIUS
  WCI - WIND CHILL INDEX
   HX - HEAT INDEX
  VSB - VISIBILITY
$$





USA.gov is the U.S. government's official web portal to all federal, state and local government web resources and services.